Kolinio Cama

Jefe de ojeadores - Navua
28 Nov 2027
Domingo
Continuar

Personalidad

Adaptabilidad (12) Ambición (14) Controversia (13) Lealtad (11) Presión (12) Profesionalismo (2) Deportividad (6) Temperamento (14)

Perfil

Estilo de dirección Democrático
Licencia Nacional B
Determinación 3
Gestión de personas 3
Motivación 3
Disciplina 6
Satisfacción laboral
100%
Fatiga
0%
Cargo Jefe de ojeadores
Salario 7.8K p/s
Contrato 14.03.2030

Rendimiento

Comportamiento Bueno
Efectividad del entrenamiento
19%
Desarrollo de jugadores
5%
Prevención de lesiones
35%
Implementación táctica
35%

Eventos recientes

Asistió a una reunión de captación ahora
Evaluó a un jugador ahora
Evaluó a un jugador ahora
Evaluó a un jugador ahora
Evaluó a un jugador ahora
Evaluó a un jugador ahora
Evaluó a un jugador ahora
Evaluó a un jugador ahora

Actualmente siguiendo

343
Jugador Club Estado Habilidad Confianza Observado Última observación Último voto
Ryan Boxall Canterbury United Activo 83 / 90 40% 6 26.11.2027 -
Rosyad Setiawan Semen Padang Activo 58 / 77 40% 5 26.11.2027 -
Shohrux Mahmudhojiyev Kokand 1912 Activo 81 / 71 40% 7 26.11.2027 -
Fortune Omoto Semen Padang Activo 91 / 68 40% 3 26.11.2027 -
Jefferson Persis Activo 94 / 66 40% 6 25.11.2027 -
Ambrizal Umanailo Persijap Activo 61 / 84 40% 4 25.11.2027 -
Erkebūlan Toibekov Taraz Activo 86 / 92 40% 1 25.11.2027 -
Abdulaziz Al-Hadhood Okzhetpes Activo 92 / 87 40% 1 25.11.2027 -
Daichi Suzuki Sagan Tosu Activo 94 / 83 40% 8 24.11.2027 -
Valentín Morelini Bhayangkara Presisi Activo 77 / 88 40% 3 24.11.2027 -
Aqil Savik Bhayangkara Presisi Activo 67 / 58 40% 7 23.11.2027 -
Shaxboz Jurayev Mashal Activo 72 / 71 40% 7 23.11.2027 -
Christian Bracco Hawke's Bay United Activo 86 / 104 40% 5 23.11.2027 -
Eldor Adhamov Sogdiana Activo 64 / 79 40% 1 23.11.2027 -
G'anisher Qodirov Shortan Activo 82 / 87 40% 11 22.11.2027 -
Ibroxim Numonov Bukhara Activo 92 / 87 40% 3 22.11.2027 -
Shahzod Turopov Qizilqum Activo 91 / 80 40% 3 21.11.2027 -
Oussama Fatmi Lautoka Activo 66 / 85 40% 6 21.11.2027 -
Lucas Urán Sydney FC Activo 91 / 87 40% 5 20.11.2027 -
Tomás Aguirre Omiya Ardija Activo 70 / 62 40% 2 20.11.2027 -
Gavriil Chizhov Akzhaiyk Activo 88 / 78 40% 2 19.11.2027 -
Samandar Toirov Nasaf Activo 65 / 70 40% 2 19.11.2027 -
Yacob Sayuri Maluku Utara United Activo 95 / 71 40% 1 19.11.2027 -
Haruna Attah AGMK Activo 85 / 85 40% 1 18.11.2027 -
Ibrahim Adel Sydney FC Activo 84 / 101 40% 1 17.11.2027 -
Pibe Aktobe Activo 105 / 114 40% 1 17.11.2027 -
Achmad Iqbal Bachtiar Semen Padang Activo 54 / 69 40% 1 17.11.2027 -
Umidjon Hamroyev Lokomotiv Activo 85 / 82 40% 1 17.11.2027 -
Sairusi Nalaubu Lautoka Activo 75 / 67 40% 12 16.11.2027 -
Kishan Sami Ba Activo 78 / 52 40% 2 16.11.2027 -
Oliver Middleton Auckland FC Activo 81 / 81 40% 2 16.11.2027 -
Irfan Jaya Bali United Activo 74 / 79 40% 3 15.11.2027 -
Ädilkhan Taňzharyqov Tobol Activo 81 / 85 40% 3 14.11.2027 -
Rustam Nartajiyev Kokand 1912 Activo 74 / 65 40% 4 14.11.2027 -
Talgat Nurgaliev Akzhaiyk Activo 69 / 99 40% 2 14.11.2027 -
Jeremy Foo Auckland City Activo 85 / 93 40% 1 14.11.2027 -
Septian Bagaskara PSM Activo 84 / 76 40% 1 14.11.2027 -
Bernard Bukari Macarthur FC Activo 57 / 74 40% 1 14.11.2027 -
Thiab Mohamed Dewa United Activo 78 / 54 40% 3 12.11.2027 -
Mohir Komilov Andijon Activo 60 / 57 40% 14 12.11.2027 -
Matt Dench Perth Glory Activo 92 / 90 40% 6 12.11.2027 -
Ollobergan Karimov Sogdiana Activo 103 / 81 40% 3 12.11.2027 -
Malual Nichola Adelaide United Activo 76 / 78 40% 4 12.11.2027 -
Oscar Fryer Newcastle Jets Activo 91 / 97 40% 3 12.11.2027 -
Joela Biuvanua Lautoka Activo 49 / 69 40% 3 11.11.2027 -
Benjamin Machini Hapoel Kfar Saba Activo 63 / 72 40% 7 11.11.2027 -
Anthony Pantazopoulos Western Sydney Wanderers Activo 108 / 115 40% 2 10.11.2027 -
Mendonça Madura United Activo 102 / 81 40% 2 10.11.2027 -
Cristian Toledo Brisbane Roar Activo 93 / 95 40% 1 10.11.2027 -
Michael McCowatt Canterbury United Activo 100 / 98 40% 5 09.11.2027 -
Muhamad Riyandi Dewa United Activo 88 / 85 40% 5 09.11.2027 -
Mayed Muhsin Atyrau Activo 78 / 66 40% 1 09.11.2027 -
Rafael Andrade Rewa Activo 71 / 64 40% 7 08.11.2027 -
Muslimbek Habibullayev Navbahor Activo 85 / 79 40% 6 08.11.2027 -
Alexey Baranov Obod Activo 88 / 89 40% 2 08.11.2027 -
Akmal Nematov Obod Activo 66 / 92 40% 2 08.11.2027 -
Sūltan Būsyrmanov Tobol Activo 77 / 73 40% 5 07.11.2027 -
Jake Barbarouses Canterbury United Activo 70 / 71 40% 2 07.11.2027 -
Hokky Caraka Persita Activo 65 / 83 40% 3 06.11.2027 -
Ridho Syuhada Maluku Utara United Activo 74 / 63 40% 3 06.11.2027 -
Zach Lisolajski Melbourne City Activo 104 / 92 40% 4 05.11.2027 -
Mourad Kaaouach Persik Activo 94 / 83 40% 4 05.11.2027 -
Nūrbergen Nūrbol Zhetysu Activo 71 / 82 40% 1 05.11.2027 -
Oscar Page Brisbane Roar Activo 70 / 81 40% 6 04.11.2027 -
Kamronbek Hamroyev Mashal Activo 66 / 59 40% 4 04.11.2027 -
Khaled Kamal Ba Activo 84 / 91 40% 6 03.11.2027 -
Sandro Embaló PSBS Biak Activo 90 / 102 40% 2 03.11.2027 -
Ergash Ismoilov Mashal Activo 78 / 78 40% 1 03.11.2027 -
Miswar Saputra Madura United Activo 80 / 83 40% 6 02.11.2027 -
Lachie Charles Maccabi Netanya Activo 92 / 77 40% 4 02.11.2027 -
Abongwe Newman Lautoka Activo 82 / 86 40% 5 01.11.2027 -
Regont Murati Auckland City Activo 75 / 72 40% 4 31.10.2027 -
Michael Lockyer Canterbury United Activo 79 / 62 40% 1 31.10.2027 -
Rawaf Al-Mallah Bali United Activo 78 / 65 40% 1 31.10.2027 -
Lucas Scicluna Perth Glory Activo 76 / 93 40% 3 30.10.2027 -
Ben Gibson Macarthur FC Activo 95 / 108 40% 13 30.10.2027 -
Ricky Kambuaya Dewa United Activo 83 / 72 40% 1 30.10.2027 -
Mohammad Khanafi Persik Activo 88 / 90 40% 2 29.10.2027 -
James Durrington Brisbane Roar Activo 93 / 93 40% 2 29.10.2027 -
Septian David Maluku Utara United Activo 92 / 96 40% 3 28.10.2027 -
Guy Bar Hapoel Tel Aviv Activo 80 / 66 40% 3 27.10.2027 -
Asilbek Tojiddinov Andijon Activo 66 / 85 40% 5 25.10.2027 -
Tomoya Kubo Shonan Bellmare Activo 83 / 79 40% 1 25.10.2027 -
Muhannad Barah Okzhetpes Activo 76 / 91 40% 2 24.10.2027 -
Dhayfallah Kadri Persib Activo 80 / 72 40% 3 23.10.2027 -
Jayson Nettey Hapoel Kfar Saba Activo 52 / 53 40% 1 23.10.2027 -
Muhammad Arfan PSM Activo 85 / 80 40% 3 22.10.2027 -
Dias Lesbek Taraz Activo 96 / 83 40% 2 22.10.2027 -
Wahyudi Hamisi Persijap Activo 95 / 78 40% 2 21.10.2027 -
Älisher Sulei Taraz Activo 74 / 68 40% 3 21.10.2027 -
Viktor Ziabko Okzhetpes Activo 77 / 73 40% 2 18.10.2027 -
Mxolisi Bhengu Kokand 1912 Activo 52 / 74 40% 1 18.10.2027 -
Juan Pablo Chávez FC Tokyo Activo 108 / 82 40% 3 17.10.2027 -
Avazxon Mamatxo'jayev Mashal Activo 89 / 81 40% 1 17.10.2027 -
Michael Barbarouses Hawke's Bay United Activo 59 / 61 40% 1 17.10.2027 -
Luke Vickery Macarthur FC Activo 97 / 94 40% 8 16.10.2027 -
Víctor Barona Melbourne City Activo 77 / 89 40% 2 15.10.2027 -
Usman Sadiq Lokomotiv Activo 69 / 72 40% 1 15.10.2027 -
Nathan Paull Macarthur FC Activo 114 / 112 40% 1 15.10.2027 -
Ryan Kalms Melbourne City Activo 84 / 102 40% 3 13.10.2027 -
Khulekani Kubheka PSIM Activo 112 / 90 40% 5 12.10.2027 -
Harlan Suardi Bhayangkara Presisi Activo 57 / 63 40% 4 12.10.2027 -
Saian Mūqanov Okzhetpes Activo 83 / 93 40% 1 12.10.2027 -
Maxim Orazov Akzhaiyk Activo 63 / 90 40% 1 11.10.2027 -
Tim Waine Canterbury United Activo 89 / 99 40% 3 10.10.2027 -
Patrick Joseph Ba Activo 79 / 58 40% 2 10.10.2027 -
Rendy Oscario Semen Padang Activo 75 / 72 40% 5 09.10.2027 -
Raka Cahyana PSIM Activo 75 / 57 40% 3 09.10.2027 -
Orlando Thorpe Nasaf Activo 68 / 90 40% 2 08.10.2027 -
O'ktamjon Abdumalikov Kokand 1912 Activo 83 / 63 40% 8 07.10.2027 -
Yamato Naito Ventforet Kofu Activo 91 / 94 40% 11 06.10.2027 -
Andrian Casvari Arema Activo 60 / 85 40% 8 05.10.2027 -
Richard Nkomo Newcastle Jets Activo 85 / 84 40% 3 05.10.2027 -
Dean Bosnjak Macarthur FC Activo 100 / 108 40% 3 05.10.2027 -
Hesham Shaaban Maccabi Haifa Activo 88 / 91 40% 1 05.10.2027 -
Nzube Chukwurah Okzhetpes Activo 96 / 87 40% 1 04.10.2027 -
Paris Domfeh Auckland City Activo 69 / 81 40% 2 03.10.2027 -
Sardor Tukhtasinov Obod Activo 75 / 69 40% 1 03.10.2027 -
Chinanu Victor Rewa Activo 84 / 67 40% 7 01.10.2027 -
Igor' Trofimets Aktobe Activo 81 / 75 40% 2 01.10.2027 -
Ernando Ari Persebaya Activo 77 / 66 40% 1 01.10.2027 -
Stefan McCowatt Hawke's Bay United Activo 71 / 71 40% 2 30.09.2027 -
Yance Sayuri Maluku Utara United Activo 79 / 87 40% 2 30.09.2027 -
Koya Hayashida Ventforet Kofu Activo 73 / 74 40% 2 29.09.2027 -
Adi Satryo Arema Activo 64 / 52 40% 6 28.09.2027 -
Gianluca Pandeynuwu Persis Activo 75 / 80 40% 4 28.09.2027 -
Timur Suyunov Obod Activo 88 / 59 40% 2 28.09.2027 -
Kayne Razmovski Rewa Activo 57 / 65 40% 8 27.09.2027 -
Make Aldo Maulidino PSIM Activo 77 / 73 40% 7 26.09.2027 -
Zane Helweh Macarthur FC Activo 80 / 91 40% 3 26.09.2027 -
Barrie Limoki Nadroga Activo 53 / 68 40% 5 25.09.2027 -
Nadeo Argawinata Persija Activo 91 / 82 40% 5 25.09.2027 -
Shun Yoshida Urawa Reds Activo 76 / 75 40% 3 25.09.2027 -
Harrison Shillington Melbourne Victory Activo 84 / 92 40% 4 24.09.2027 -
Joel Bertolissio Newcastle Jets Activo 81 / 98 40% 3 24.09.2027 -
Joshua Inserra Melbourne Victory Activo 96 / 92 40% 4 23.09.2027 -
Ozodbek Marufov Nadroga Activo 59 / 55 40% 6 21.09.2027 -
Syahrul Trisna Borneo Activo 89 / 85 40% 5 20.09.2027 -
Raymond Matlamela Rewa Activo 58 / 83 40% 3 20.09.2027 -
Iran Madura United Activo 79 / 63 40% 1 20.09.2027 -
Kosta Bell Southern United Activo 61 / 74 40% 1 20.09.2027 -
Mishal Saad Hapoel Raanana Activo 73 / 65 40% 2 19.09.2027 -
Tim Stamatelopoulos Canterbury United Activo 90 / 73 40% 1 19.09.2027 -
Diky Indrayana Madura United Activo 78 / 73 40% 3 18.09.2027 -
Ilham Udin Armayn PSBS Biak Activo 62 / 85 40% 2 18.09.2027 -
Alan Ríos Beitar Jerusalem Activo 104 / 107 40% 3 16.09.2027 -
Natanael Hernández Sagan Tosu Activo 84 / 93 40% 1 16.09.2027 -
Kosta Just Hawke's Bay United Activo 67 / 78 40% 1 16.09.2027 -
Seth Clark Sydney FC Activo 93 / 84 40% 2 15.09.2027 -
Joe Lacey Sydney FC Activo 88 / 94 40% 1 15.09.2027 -
Reuben Otieno Neftchi Activo 66 / 55 40% 1 15.09.2027 -
Muhammad Ardiansyah PSM Activo 59 / 86 40% 1 15.09.2027 -
Behruz Soatov Rewa Activo 64 / 84 40% 5 13.09.2027 -
Tomer Litvinov Maccabi Netanya Activo 83 / 99 40% 1 09.09.2027 -
Jahongir Mamatqulov Qizilqum Activo 75 / 61 40% 10 07.09.2027 -
Isikeli Sevanaia Rewa Activo 49 / 45 40% 9 06.09.2027 -
Junior Mpanza Arema Activo 56 / 61 40% 1 06.09.2027 -
José Meza Bhayangkara Presisi Activo 61 / 59 40% 1 06.09.2027 -
Yoav Dejaldeti Bnei Yehuda Activo 88 / 98 40% 5 02.09.2027 -
Akam Moses PSIM Activo 64 / 69 40% 4 31.08.2027 -
Sihran Amarullah Borneo Activo 96 / 74 40% 2 31.08.2027 -
Ryuga Tashiro Albirex Niigata Activo 76 / 72 40% 2 31.08.2027 -
Yanis Hénin Bunyodkor Activo 85 / 91 40% 1 30.08.2027 -
Arian Pardo Adelaide United Activo 104 / 105 40% 3 28.08.2027 -
Areya Prasad Auckland City Activo 63 / 76 40% 1 28.08.2027 -
Dylan Connolly Auckland City Activo 81 / 89 40% 4 27.08.2027 -
Davis Morwaswi Semen Padang Activo 93 / 87 40% 3 26.08.2027 -
Sitiveni Rakai Labasa Activo 55 / 61 40% 2 26.08.2027 -
James Hilton Macarthur FC Activo 72 / 82 40% 7 25.08.2027 -
Muhammad Toha Persita Activo 76 / 75 40% 1 24.08.2027 -
Riley Dalziell Auckland FC Activo 86 / 85 40% 3 23.08.2027 -
Wonderson Yakubu Hapoel Raanana Activo 93 / 83 40% 5 21.08.2027 -
Yuda Editya Madura United Activo 84 / 54 40% 4 19.08.2027 -
Alex Nunes Newcastle Jets Activo 86 / 86 40% 1 19.08.2027 -
Brandon Comley Hapoel Raanana Activo 71 / 69 40% 6 18.08.2027 -
Lyle Chatburn Auckland City Activo 87 / 83 40% 1 17.08.2027 -
Mark Isozaki Omiya Ardija Activo 102 / 72 40% 3 13.08.2027 -
Darold Kakasi Ba Activo 67 / 61 40% 1 13.08.2027 -
Gavin Kwan Adsit Borneo Activo 62 / 75 40% 1 13.08.2027 -
Aphile Ngobese Aktobe Activo 82 / 90 40% 4 11.08.2027 -
Will McKay Macarthur FC Activo 74 / 72 40% 5 07.08.2027 -
Jordi Valadon Melbourne Victory Activo 96 / 115 40% 2 07.08.2027 -
Matlahatsi Mampane Lautoka Activo 87 / 73 40% 3 05.08.2027 -
Mohamad Anez Borneo Activo 108 / 99 40% 2 05.08.2027 -
Shivam Naidu Lautoka Activo 53 / 57 40% 1 03.08.2027 -
Daniel Cohen Maccabi Netanya Activo 59 / 75 40% 2 02.08.2027 -
Israel Monga Adelaide United Activo 69 / 85 40% 1 02.08.2027 -
Saidu Lawan Dewa United Activo 54 / 71 40% 6 01.08.2027 -
Davron To'laganov Pakhtakor Activo 80 / 79 40% 3 01.08.2027 -
Tim Smith Waitakere United Activo 76 / 80 40% 3 28.07.2027 -
Paulo Sitanggang Madura United Activo 71 / 85 40% 6 27.07.2027 -
Owen Lockyer Waitakere United Activo 49 / 47 40% 1 27.07.2027 -
Richard Monday Ubong Vissel Kobe Activo 57 / 97 40% 5 26.07.2027 -
Kléber Carranza Vegalta Sendai Activo 94 / 109 40% 3 26.07.2027 -
Azamat Soyibov Kokand 1912 Activo 69 / 98 40% 1 24.07.2027 -
Or Yitzhak Bnei Yehuda Activo 67 / 89 40% 3 23.07.2027 -
Islom Kenjaboyev Shortan Activo 101 / 71 40% 7 23.07.2027 -
Michael Woud Auckland FC Activo 99 / 98 40% 2 23.07.2027 -
Kou Gotou Shakhter Activo 78 / 68 40% 1 23.07.2027 -
Maicon Silva Semen Padang Activo 57 / 78 40% 9 22.07.2027 -
Iowane Matanisiga Labasa Activo 58 / 50 40% 2 21.07.2027 -
Deklan Wood Waitakere United Activo 65 / 64 40% 2 21.07.2027 -
Wataru Kamijo Sydney FC Activo 89 / 91 40% 3 18.07.2027 -
Takumi Yasuno Vegalta Sendai Activo 81 / 71 40% 1 18.07.2027 -
Theo Numberi Dewa United Activo 87 / 89 40% 4 17.07.2027 -
Julio Pérez Sagan Tosu Activo 92 / 87 40% 1 16.07.2027 -
Yuval Kretzo Maccabi Petach Tikva Activo 86 / 93 40% 3 11.07.2027 -
Xolani Tshaka Navbahor Activo 85 / 85 40% 2 10.07.2027 -
Federico Bonetto Melbourne City Activo 74 / 86 40% 2 07.07.2027 -
Matías Bentos-Pereira Melbourne City Activo 100 / 91 40% 3 07.07.2027 -
Etonia Dogalau Ba Activo 56 / 62 40% 6 06.07.2027 -
Yaad Gonen Hapoel Haifa Activo 69 / 88 40% 1 06.07.2027 -
Sotiri Phillis Adelaide United Activo 79 / 99 40% 1 06.07.2027 -
Mohamed Mouaataz Khenniche Bunyodkor Activo 87 / 90 40% 7 04.07.2027 -
Stanislav Samoilov Zhetysu Activo 69 / 86 40% 4 04.07.2027 -
Tevita Waranaivalu Rewa Activo 73 / 52 40% 3 03.07.2027 -
Azat Nurgaliev Akzhaiyk Activo 49 / 71 40% 1 02.07.2027 -
Roy Buganim Hapoel Kfar Saba Activo 67 / 90 40% 3 30.06.2027 -
Ryan Kurnia Bhayangkara Presisi Activo 54 / 72 40% 2 30.06.2027 -
Murodjon Komilov Kokand 1912 Activo 83 / 91 40% 1 30.06.2027 -
Toshikazu Teruuchi Urawa Reds Activo 67 / 92 40% 5 29.06.2027 -
Aporosa Yada Labasa Activo 58 / 52 40% 3 26.06.2027 -
Ori Hassan Bnei Yehuda Activo 94 / 87 40% 1 26.06.2027 -
Armando Oropa Semen Padang Activo 54 / 85 40% 1 23.06.2027 -
Clayton Payne Waitakere United Activo 92 / 95 40% 3 22.06.2027 -
Sam Boxall WaiBOP United Activo 67 / 70 40% 1 22.06.2027 -
Tim Lewis Canterbury United Activo 51 / 62 40% 1 22.06.2027 -
Habibi Jusuf Borneo Activo 55 / 54 40% 6 19.06.2027 -
Tzuri Zeituni Maccabi Netanya Activo 60 / 74 40% 2 16.06.2027 -
Callum McCowatt WaiBOP United Activo 55 / 72 40% 2 15.06.2027 -
Simione Nabenu Suva Activo 64 / 61 40% 3 15.06.2027 -
Yuran Lopes PSM Activo 79 / 75 40% 1 14.06.2027 -
Wahyu Agong Semen Padang Activo 61 / 71 40% 5 12.06.2027 -
Caxambu Borneo Activo 69 / 97 40% 1 12.06.2027 -
Noah Lockyer Waitakere United Activo 68 / 70 40% 2 07.06.2027 -
Ravinesh Reddy Nadroga Activo 57 / 46 40% 5 05.06.2027 -
Sairusi Qiolevu Tailevu Naitasiri Activo 49 / 47 48% 1 03.06.2027 -
Nicolas Riveros Maccabi Petach Tikva Activo 72 / 82 40% 1 03.06.2027 -
Beniamino Swamy Nadroga Activo 44 / 57 48% 1 02.06.2027 -
Yan Shicot Beitar Jerusalem Activo 44 / 73 40% 1 01.06.2027 -
Sardorbek Salimov Bukhara Activo 47 / 53 40% 1 27.05.2027 -
France Catarogo Tailevu Naitasiri Activo 65 / 46 40% 3 25.05.2027 -
Yofandani Pranata Dewa United Activo 56 / 68 40% 1 24.05.2027 -
Dwiki Mardiyanto Arema Activo 48 / 70 40% 2 23.05.2027 -
Cois Artomoro Persita Activo 65 / 60 40% 2 22.05.2027 -
Jimson Abana Nadi Activo 68 / 72 40% 3 21.05.2027 -
Steward Toata Nadroga Activo 58 / 62 40% 2 19.05.2027 -
Farruhjon Qodirov Bukhara Activo 69 / 80 40% 1 18.05.2027 -
Jens Raven Bali United Activo 60 / 69 40% 3 14.05.2027 -
Fitrul Dwi Rustapa Bali United Activo 66 / 93 40% 2 13.05.2027 -
Adre Arido Metallurg Activo 50 / 66 40% 3 12.05.2027 -
Grant Turner Southern United Activo 99 / 93 40% 3 12.05.2027 -
Bruce Hughes Nasinu Activo 43 / 43 40% 1 12.05.2027 -
Leon Kofana Rewa Activo 66 / 66 40% 1 12.05.2027 -
Nabil Begg Ba Activo 66 / 75 40% 1 10.05.2027 -
Niv Tubul Hapoel Kfar Saba Activo 65 / 64 40% 1 08.05.2027 -
Og'abek Asadov Shortan Activo 65 / 52 40% 2 07.05.2027 -
Tyler Williams Sydney FC Activo 63 / 66 40% 3 03.05.2027 -
Albert Nurullayev Bukhara Activo 62 / 88 40% 3 01.05.2027 -
Adam Przybek Persib Activo 100 / 94 40% 3 27.04.2027 -
Yardan Yafi Persita Activo 56 / 36 40% 3 27.04.2027 -
Adam Bell Auckland City Activo 67 / 62 40% 2 26.04.2027 -
Amit Harel Bnei Yehuda Activo 48 / 57 40% 2 25.04.2027 -
Setareki Hughes Rewa Activo 54 / 53 40% 5 24.04.2027 -
Resky Fandi PSM Activo 81 / 70 40% 1 16.04.2027 -
Pauliasi Tulivou Nadi Activo 65 / 54 40% 1 14.04.2027 -
Miraziz Mahamadaliyev Andijon Activo 51 / 68 40% 4 09.04.2027 -
Jack Warshawsky Melbourne Victory Activo 86 / 98 40% 5 01.04.2027 -
Iosefo Verevou Tailevu Naitasiri Activo 62 / 72 40% 1 31.03.2027 -
Samuel Gwijangge PSBS Biak Activo 42 / 76 40% 1 29.03.2027 -
Cahya Supriadi PSIM Activo 44 / 64 40% 4 23.03.2027 -
Abdul Rahman PSM Activo 74 / 64 40% 2 22.03.2027 -
Saar Schwartz Hapoel Acre Activo 49 / 73 40% 2 21.03.2027 -
Shun Isotani Sagan Tosu Activo 99 / 103 40% 1 15.03.2027 -
Jayden Smith Wellington Phoenix Activo 81 / 95 40% 4 14.03.2027 -
Ben Mewett Western Sydney Wanderers Activo 76 / 67 40% 1 11.03.2027 -
Beni Feldman Maccabi Netanya Activo 86 / 89 40% 1 09.03.2027 -
Aji Kusuma Madura United Activo 90 / 88 40% 1 25.02.2027 -
Fransiskus Alesandro Persik Activo 39 / 49 40% 1 23.02.2027 -
Lucas Abarca Ba Activo 93 / 69 40% 1 23.02.2027 -
Dendy Sulistyawan Bhayangkara Presisi Activo 82 / 64 40% 1 19.02.2027 -
Harumu Kubo Nagoya Grampus Activo 80 / 95 40% 1 10.02.2027 -
Lee Min Ki Ventforet Kofu Activo 58 / 88 40% 1 09.02.2027 -
Ahmad Nur Hardianto Persita Activo 83 / 72 40% 1 08.02.2027 -
Sitiveni Cavuilagi Lautoka Activo 52 / 72 40% 1 05.02.2027 -
Reagan Ogle Melbourne City Activo 81 / 95 40% 3 29.01.2027 -
Bautista Alonso Omiya Ardija Activo 72 / 69 40% 1 29.01.2027 -
Pablo Martínez Brisbane Roar Activo 78 / 78 40% 1 23.01.2027 -
Alijon Bekmurodov Bunyodkor Activo 77 / 79 40% 1 23.01.2027 -
Sulton Rahmatov Qizilqum Activo 47 / 50 40% 3 18.01.2027 -
Alper Özdemi̇r Kokand 1912 Activo 86 / 67 40% 1 17.01.2027 -
Yosh Strimling Avispa Fukuoka Activo 91 / 91 40% 1 15.01.2027 -
Favio Funes Western Sydney Wanderers Activo 76 / 59 40% 1 15.01.2027 -
Fabian Talladira Adelaide United Activo 92 / 89 40% 3 13.01.2027 -
Shaker Abu Husein Bnei Sakhnin Activo 88 / 87 40% 4 07.01.2027 -
Abdul Naviko Nadroga Activo 55 / 63 48% 1 03.01.2027 -
Powell Obinna Obi Avispa Fukuoka Activo 76 / 104 40% 4 31.12.2026 -
Valijon Rahimov Navbahor Activo 90 / 87 40% 2 31.12.2026 -
Mitchell Glasson Sydney FC Activo 70 / 99 40% 1 29.12.2026 -
Baek In-Hwan FC Tokyo Activo 82 / 61 40% 2 25.12.2026 -
Keita Fukui Omiya Ardija Activo 84 / 77 40% 1 25.12.2026 -
Tevita Koroi Ba Activo 63 / 53 40% 1 18.12.2026 -
Faazil Ali Ba Activo 48 / 52 40% 2 16.12.2026 -
Rocky Junior Nadi Activo 59 / 48 40% 1 15.12.2026 -
Michael Pistiner Bnei Yehuda Activo 85 / 82 40% 1 14.12.2026 -
Christopher Wasasala Labasa Activo 67 / 61 40% 1 12.12.2026 -
Hilman Syah PSM Activo 55 / 57 40% 1 30.11.2026 -
Roman Khadjiev Mashal Activo 98 / 97 40% 1 26.11.2026 -
Camilo Núñez Kashiwa Reysol Activo 88 / 120 40% 1 24.11.2026 -
Yonatan Shani Hapoel Beer Sheva Activo 39 / 71 40% 3 23.11.2026 -
Sūltan Shymyrkhan Shakhter Activo 51 / 77 40% 2 08.11.2026 -
Angga Saputra Persija Activo 89 / 97 40% 2 08.11.2026 -
Shodiyor Shodiboyev Lokomotiv Activo 99 / 77 40% 1 03.11.2026 -
Daiki Hotta Vegalta Sendai Activo 107 / 111 40% 1 01.11.2026 -
Ethan Cox Adelaide United Activo 77 / 99 40% 2 17.10.2026 -
Mohammed Alam Lautoka Activo 43 / 71 40% 2 08.10.2026 -
Hafizh Rizkianur Persija Activo 72 / 48 40% 1 08.10.2026 -
Sheva Sanggasi Persijap Activo 48 / 69 40% 2 05.10.2026 -
Izzatullo Abdulhaqov Mashal Activo 78 / 91 40% 2 02.10.2026 -
Kolawole Oladipo AGMK Activo 98 / 93 40% 1 28.09.2026 -
Federico Montiel Agropecuario Argentino Activo 73 / 107 40% 1 28.08.2026 -
Facundo Di Sibio Agropecuario Argentino Activo 89 / 93 40% 1 28.08.2026 -
Ignacio Abarza Huracán Activo 72 / 82 40% 1 26.08.2026 -
Federico Ricca Belgrano Activo 124 / 133 40% 1 23.08.2026 -
Simón Navarro Independiente Activo 65 / 69 40% 1 21.08.2026 -
Francisco La Mantia Caracas Activo 107 / 111 40% 1 21.08.2026 -
Henry Rochón Plaza Colonia Activo 70 / 59 40% 1 21.08.2026 -
Thomás Rojas Quilmes Activo 98 / 71 40% 1 18.08.2026 -
Iarley Alayo Huracán Activo 93 / 94 40% 1 18.08.2026 -
Gerónimo Montivero Godoy Cruz Activo 71 / 104 40% 1 16.08.2026 -
Kevin Romero Racing Activo 83 / 101 40% 1 11.08.2026 -
Marcos Carrera Atlético Tucumán Activo 80 / 108 40% 1 09.08.2026 -
Joaquín Rivero Instituto Activo 88 / 75 40% 1 08.08.2026 -
Francisco Garrido Ferro Carril Oeste Activo 80 / 70 40% 1 07.08.2026 -
Agustín Heredia Boca Juniors Activo 122 / 88 40% 1 04.08.2026 -
Genaro Giordani Gimnasia y Esgrima Activo 72 / 108 40% 1 03.08.2026 -
Máximo Cabral Danubio Activo 86 / 73 40% 1 03.08.2026 -
Jáder Maza Jaguares Activo 102 / 96 40% 1 02.08.2026 -
Gonzalo Asis Almagro Activo 107 / 119 40% 1 02.08.2026 -
Eduardo Villanueva Colo-Colo Activo 67 / 74 40% 1 02.08.2026 -
Augusto Bottini Almirante Brown Activo 100 / 104 40% 1 02.08.2026 -
Vitinho River Plate Activo 86 / 89 40% 1 01.08.2026 -
Germán Ferreyra Western Sydney Wanderers Activo 98 / 108 40% 1 01.08.2026 -